2023/10/21 00:00:00,24.0, 8.6
2023/10/21 00:10:00,23.9, 8.7
2023/10/21 00:20:00,24.0, 8.5
2023/10/21 00:30:00,24.0, 8.5
2023/10/21 00:40:00,24.0, 8.0
2023/10/21 00:50:00,24.0, 7.9
2023/10/21 01:00:00,23.9, 7.4
2023/10/21 01:10:00,23.9, 7.0
2023/10/21 01:20:00,23.8, 7.1
2023/10/21 01:30:00,23.8, 6.4
2023/10/21 01:40:00,23.8, 6.6
2023/10/21 01:50:00,23.9, 6.7
2023/10/21 02:00:00,23.9, 6.4
2023/10/21 02:10:00,23.9, 6.7
2023/10/21 02:20:00,23.9, 6.7
2023/10/21 02:30:00,23.9, 6.8
2023/10/21 02:40:00,23.9, 7.1
2023/10/21 02:50:00,23.8, 6.4
2023/10/21 03:00:00,23.8, 6.9
2023/10/21 03:10:00,23.8, 6.4
2023/10/21 03:20:00,23.7, 6.7
2023/10/21 03:30:00,23.8, 6.9
2023/10/21 03:40:00,23.7, 6.8
2023/10/21 03:50:00,23.8, 7.1
2023/10/21 04:00:00,23.9, 7.0
2023/10/21 04:10:00,23.8, 7.0
2023/10/21 04:20:00,23.7, 6.7
2023/10/21 04:30:00,23.7, 6.5
2023/10/21 04:40:00,23.8, 6.6
2023/10/21 04:50:00,23.8, 6.3
2023/10/21 05:00:00,23.8, 6.0
2023/10/21 05:10:00,23.8, 6.0
2023/10/21 05:20:00,23.7, 6.0
2023/10/21 05:30:00,23.7, 6.0
2023/10/21 05:40:00,23.7, 6.0
2023/10/21 05:50:00,23.7, 6.1
2023/10/21 06:00:00,23.8, 6.4
2023/10/21 06:10:00,23.9, 6.2
2023/10/21 06:20:00,23.8, 6.4
2023/10/21 06:30:00,23.9, 6.5
2023/10/21 06:40:00,23.9, 6.8
2023/10/21 06:50:00,23.8, 6.9
2023/10/21 07:00:00,23.8, 7.4
2023/10/21 07:10:00,23.8, 7.4
2023/10/21 07:20:00,23.9, 7.6
2023/10/21 07:30:00,23.8, 7.9
2023/10/21 07:40:00,23.8, 8.3
2023/10/21 07:50:00,23.9, 8.3
2023/10/21 08:00:00,23.8, 8.8
2023/10/21 08:10:00,23.7, 8.8
2023/10/21 08:20:00,23.9, 8.9
2023/10/21 08:30:00,24.0, 9.2
2023/10/21 08:40:00,24.1, 9.6
2023/10/21 08:50:00,24.2,10.2
2023/10/21 09:00:00,24.4,10.2
2023/10/21 09:10:00,24.3,10.2
2023/10/21 09:20:00,24.2,10.6
2023/10/21 09:30:00,24.6,10.0
2023/10/21 09:40:00,24.5, 9.7
2023/10/21 09:50:00,24.4,10.0
2023/10/21 10:00:00,24.2,10.0
2023/10/21 10:10:00,24.1,10.0
2023/10/21 10:20:00,23.8,10.0
2023/10/21 10:30:00,23.9,10.2
2023/10/21 10:40:00,23.9,10.3
2023/10/21 10:50:00,24.0,10.1
2023/10/21 11:00:00,24.0,10.5
2023/10/21 11:10:00,25.1,12.1
2023/10/21 11:20:00,27.4,10.6
2023/10/21 11:30:00,---,10.9
2023/10/21 11:40:00,24.7,12.2
2023/10/21 11:50:00,24.8,12.5
2023/10/21 12:00:00,25.2,13.8
2023/10/21 12:10:00,24.8,12.5
2023/10/21 12:20:00,25.1,11.3
2023/10/21 12:30:00,25.1,11.0
2023/10/21 12:40:00,---,11.8
2023/10/21 12:50:00,28.1,13.6
2023/10/21 13:00:00,24.6,13.4
2023/10/21 13:10:00,24.7,13.6
2023/10/21 13:20:00,34.6,14.7
2023/10/21 13:30:00,27.6,13.4
2023/10/21 13:40:00,41.5,13.2
2023/10/21 13:50:00,25.9,13.5
2023/10/21 14:00:00,24.6,13.6
2023/10/21 14:10:00,25.2,14.2
2023/10/21 14:20:00,24.6,12.8
2023/10/21 14:30:00,---,12.4
2023/10/21 14:40:00,---,12.2
2023/10/21 14:50:00,25.6,13.1
2023/10/21 15:00:00,34.5,12.0
2023/10/21 15:10:00,29.5,12.1
2023/10/21 15:20:00,24.7,11.8
2023/10/21 15:30:00,25.1,11.4
2023/10/21 15:40:00,26.0,11.3
2023/10/21 15:50:00,25.0,11.3
2023/10/21 16:00:00,25.0,10.9
2023/10/21 16:10:00,25.1, 9.9
2023/10/21 16:20:00,25.2, 9.6
2023/10/21 16:30:00,25.4, 9.1
2023/10/21 16:40:00,25.2, 9.1
2023/10/21 16:50:00,25.5, 8.9
2023/10/21 17:00:00,25.4, 8.6
2023/10/21 17:10:00,25.2, 8.5
2023/10/21 17:20:00,25.3, 8.3
2023/10/21 17:30:00,25.2, 8.2
2023/10/21 17:40:00,25.1, 7.8
2023/10/21 17:50:00,24.8, 7.4
2023/10/21 18:00:00,24.7, 7.4
2023/10/21 18:10:00,24.7, 7.0
2023/10/21 18:20:00,24.6, 7.0
2023/10/21 18:30:00,24.5, 6.8
2023/10/21 18:40:00,24.6, 6.9
2023/10/21 18:50:00,24.6, 6.9
2023/10/21 19:00:00,24.7, 7.1
2023/10/21 19:10:00,24.7, 7.2
2023/10/21 19:20:00,24.8, 7.3
2023/10/21 19:30:00,24.7, 7.1
2023/10/21 19:40:00,24.7, 7.2
2023/10/21 19:50:00,24.6, 7.2
2023/10/21 20:00:00,24.1, 7.1
2023/10/21 20:10:00,24.5, 7.4
2023/10/21 20:20:00,24.5, 7.3
2023/10/21 20:30:00,24.4, 7.7
2023/10/21 20:40:00,24.4, 7.4
2023/10/21 20:50:00,24.1, 7.4
2023/10/21 21:00:00,24.3, 7.4
2023/10/21 21:10:00,24.2, 7.4
2023/10/21 21:20:00,24.1, 7.4
2023/10/21 21:30:00,24.1, 6.9
2023/10/21 21:40:00,24.4, 7.1
2023/10/21 21:50:00,24.4, 7.0
2023/10/21 22:00:00,24.3, 6.9
2023/10/21 22:10:00,24.3, 6.9
2023/10/21 22:20:00,24.4, 7.1
2023/10/21 22:30:00,24.3, 6.6
2023/10/21 22:40:00,24.2, 6.7
2023/10/21 22:50:00,24.2, 6.7
2023/10/21 23:00:00,24.2, 7.0
2023/10/21 23:10:00,24.3, 6.9
2023/10/21 23:20:00,24.3, 7.1
2023/10/21 23:30:00,24.3, 6.7
2023/10/21 23:40:00,24.3, 6.8
2023/10/21 23:50:00,24.3, 6.7
